Flag for Germany Weather past 2 weeks in Mönchengladbach, North Rhine-Westphalia, Germany

Now
52 °F

Light rain. Passing clouds.


Feels Like: 47 °F
Forecast: 41 / 48 °F
Wind: 15 mph from Southwest

Location: Monchengladbach Airport

Current Time: Mar 29, 2015 at 3:27:30 PM

Latest Report: Mar 29, 2015 at 2:50 PM


Visibility: 4 mi

Pressure: 29.45 "Hg

Humidity: 94%

Dew point: 50 °F

Location of MönchengladbachLocation

Historic Weather in Mönchengladbach — Graph

°F

Mönchengladbach temperature yesterday

Maximum temperature yesterday: 54 °F (at 11:20 AM)
Minimum temperature yesterday: 36 °F (at 7:50 AM)
Average temperature yesterday: 49 °F

Past Weeks' High & Low Weather Summary

 TemperatureHumidityPressure
High64 °F (Mar 17, 3:20 PM)100% (Mar 15, 9:20 AM)30.39 "Hg (Mar 15, 9:20 AM)
Low32 °F (Mar 17, 7:20 AM)34% (Mar 17, 3:20 PM)29.47 "Hg (Mar 29, 2:20 PM)
Average46 °F79%30.08 "Hg
* Reported Mar 14 1:20 PM — Mar 29 2:20 PM, Mönchengladbach, Weather by CustomWeather, © 2015

Note: Actual official high and low records may vary slightly from our data, if they occured in-between our weather recording intervals... More about our weather records

Advertising

Mönchengladbach weather history for previous 24 hours

 ConditionsComfort  
Time TempWeatherWind HumidityBarometerVisibility
2:20 PM
Sun, Mar 29
52 °FPassing clouds.15 mph100%29.47 "Hg3 mi
1:50 PM50 °FRain. Passing clouds.13 mph100%29.50 "Hg3 mi
1:20 PM50 °FPassing clouds.12 mph100%29.53 "Hg3 mi
12:50 PM50 °FDrizzle. Fog.13 mph100%29.56 "Hg3 mi
12:20 PM50 °FLight rain. Passing clouds.14 mph94%29.59 "Hg5 mi
11:50 AM50 °FLight rain. Partly sunny.12 mph100%29.59 "Hg5 mi
11:20 AM48 °FDrizzle. Fog.12 mph100%29.62 "Hg3 mi
10:50 AM48 °FDrizzle. Fog.13 mph100%29.62 "Hg3 mi
10:20 AM48 °FLight rain. Fog.12 mph100%29.65 "Hg3 mi
9:50 AM48 °FLight rain. Partly sunny.14 mph100%29.65 "Hg4 mi
9:20 AM50 °FLight rain. Partly sunny.12 mph82%29.65 "HgN/A
8:50 AM50 °FPartly sunny.13 mph82%29.68 "HgN/A
8:20 AM52 °FPartly sunny.16 mph72%29.68 "HgN/A
7:50 AM52 °FPartly sunny.14 mph72%29.68 "HgN/A
7:50 PM
Sat, Mar 28
52 °FRain showers. Passing clouds.10 mph94%29.86 "Hg4 mi
7:20 PM52 °FPartly cloudy.10 mph94%29.86 "HgN/A
6:50 PM52 °FPartly cloudy.10 mph94%29.89 "HgN/A
6:20 PM52 °FPassing clouds.8 mph94%29.89 "HgN/A
5:50 PM52 °FPassing clouds.8 mph94%29.89 "HgN/A
5:20 PM50 °FPassing clouds.9 mph100%29.89 "HgN/A
4:50 PM48 °FPassing clouds.8 mph100%29.92 "HgN/A
4:20 PM48 °FLight rain. Passing clouds.9 mph100%29.92 "Hg5 mi
3:50 PM48 °FLight rain. Fog.8 mph100%29.95 "Hg2 mi
3:20 PM48 °FLight rain. Partly cloudy.9 mph100%29.95 "Hg2 mi
Weather by CustomWeather, © 2015

See weather overviewHow to use our weather pages